Home   Weather   Khabarovsk   Past weeks

Flag for Russia Past Weather in Khabarovsk, Russia — Yesterday and Last 2 Weeks

Now
52 °F

Clear.


Feels Like: 49 °F
Forecast: 43 / 59 °F
Wind: 8 mph from Southwest

Location: Habarovsk

Current Time: Sep 29, 2016 at 11:44:33 PM

Latest Report: Sep 29, 2016 at 11:00 PM


Visibility: 10 mi

Pressure: 29.86 "Hg

Humidity: 62%

Dew Point: 39 °F

Location of KhabarovskLocation

Past Weather in Khabarovsk — Graph

°F

Khabarovsk Temperature Yesterday

Maximum temperature yesterday: 59 °F (at 3:30 PM)
Minimum temperature yesterday: 36 °F (at 6:30 AM)
Average temperature yesterday: 48 °F

High & Low Weather Summary for the Past Weeks

 TemperatureHumidityPressure
High72 °F (Sep 22, 1:30 PM)100% (Sep 14, 11:00 PM)30.18 "Hg (Sep 14, 11:00 PM)
Low36 °F (Sep 28, 6:30 AM)29% (Sep 28, 1:30 PM)29.56 "Hg (Sep 25, 1:30 PM)
Average55 °F77%29.94 "Hg
* Reported Sep 14 10:00 PM — Sep 29 10:30 PM, Khabarovsk, Weather by CustomWeather, © 2016

Note: Actual official high and low records may vary slightly from our data, if they occured in-between our weather recording intervals... More about our weather records

Advertising

Khabarovsk Weather History for the Previous 24 Hours

Scroll right to see more
 ConditionsComfort  
Time TempWeatherWind HumidityBarometerVisibility
10:30 PM
Thu, Sep 29
52 °FClear.10 mph62%29.86 "Hg10 mi
10:00 PM52 °FClear.8 mph67%29.86 "Hg10 mi
9:30 PM50 °FPassing clouds.3 mph71%29.86 "HgN/A
9:00 PM52 °FClear.6 mph67%29.86 "Hg10 mi
8:30 PM52 °FClear.6 mph67%29.86 "Hg10 mi
8:00 PM54 °FClear.6 mph63%29.86 "Hg10 mi
7:30 PM55 °FPassing clouds.6 mph59%29.86 "HgN/A
7:00 PM55 °FClear.10 mph59%29.86 "Hg10 mi
6:30 PM57 °FSunny.15 mph55%29.86 "Hg10 mi
6:00 PM59 °FSunny.13 mph51%29.86 "Hg10 mi
5:30 PM61 °FSunny.20 mph48%29.86 "Hg10 mi
5:00 PM61 °FSunny.20 mph48%29.86 "Hg10 mi
4:30 PM61 °FSunny.17 mph45%29.86 "Hg10 mi
4:00 PM63 °FSunny.17 mph37%29.86 "Hg10 mi
3:30 PM63 °FSunny.20 mph34%29.86 "Hg10 mi
3:00 PM63 °FSunny.17 mph32%29.86 "Hg10 mi
2:30 PM63 °FSunny.20 mph39%29.86 "Hg10 mi
2:00 PM61 °FSunny.20 mph42%29.89 "Hg10 mi
1:30 PM59 °FSunny.17 mph45%29.89 "Hg10 mi
1:00 PM57 °FSunny.15 mph51%29.92 "Hg10 mi
12:30 PM57 °FSunny.13 mph51%29.92 "Hg10 mi
12:00 PM55 °FSunny.15 mph51%29.95 "Hg10 mi
11:30 AM55 °FPassing clouds.13 mph51%29.95 "HgN/A
11:00 AM54 °FSunny.13 mph54%29.95 "Hg10 mi
10:30 AM54 °FSunny.13 mph54%29.95 "Hg10 mi
10:00 AM52 °FSunny.13 mph54%29.95 "Hg10 mi
9:30 AM50 °FSunny.13 mph58%29.95 "Hg10 mi
9:00 AM50 °FSunny.15 mph58%29.95 "Hg10 mi
8:30 AM48 °FSunny.15 mph62%29.95 "Hg10 mi
8:00 AM46 °FSunny.15 mph66%29.95 "Hg10 mi
7:30 AM45 °FSunny.10 mph71%29.92 "Hg10 mi
7:00 AM43 °FSunny.10 mph76%29.92 "Hg10 mi
6:30 AM45 °FClear.8 mph66%29.92 "Hg10 mi
6:00 AM41 °FClear.3 mph81%29.92 "Hg10 mi
5:30 AM39 °FClear.6 mph87%29.92 "Hg10 mi
5:00 AM41 °FClear.8 mph81%29.92 "Hg10 mi
4:30 AM41 °FClear.10 mph81%29.92 "Hg10 mi
4:00 AM41 °FClear.8 mph81%29.92 "Hg10 mi
3:30 AM41 °FClear.8 mph81%29.92 "Hg10 mi
3:00 AM41 °FClear.6 mph81%29.92 "Hg10 mi
2:30 AM45 °FClear.8 mph76%29.92 "Hg10 mi
2:00 AM41 °FClear.8 mph81%29.92 "Hg10 mi
1:30 AM43 °FClear.10 mph81%29.95 "Hg10 mi
1:00 AM43 °FClear.8 mph81%29.95 "Hg10 mi
12:30 AM43 °FClear.8 mph81%29.95 "Hg10 mi
12:00 AM45 °FQuite cool.N/A81%29.95 "HgN/A
11:30 PM
Wed, Sep 28
43 °FClear.10 mph81%29.95 "Hg10 mi
11:00 PM46 °FClear.6 mph71%29.95 "Hg10 mi
Weather by CustomWeather, © 2016

See weather overviewHow to use our weather pages